contact:dominique.lefevre@mio.osupytheas.fr, maurice.libes@osupytheas.fr, didier.mallarino@osupytheas.fr
Project:EMSO http://www.emso-fr.org/EMSO-France
Depth: 2436.0 m
Title:EMSO Ligure Ouest : Data MII capteur MICROCAT
DateTime_Computer,Latitude,Longitude,Temperature,Conductivity,Pressure,DateTime_Instrument
DateTime_Computer,Latitude,Longitude,degC,S m-1,dbar,DateTime_Instrument
2020-12-21T00:00:47Z,42.805,6.029,13.2992,4.60000,2470.24,2020-12-21T02:01:46Z
2020-12-21T00:03:50Z,42.805,6.029,13.2986,4.60011,2470.25,2020-12-21T02:04:49Z
2020-12-21T00:06:53Z,42.805,6.029,13.3011,4.60023,2470.24,2020-12-21T02:07:52Z
2020-12-21T00:09:56Z,42.805,6.029,13.2987,4.60019,2470.24,2020-12-21T02:10:55Z
2020-12-21T00:12:59Z,42.805,6.029,13.2986,4.59999,2470.217,2020-12-21T02:13:58Z
2020-12-21T00:16:02Z,42.805,6.029,13.2980,4.59999,2470.217,2020-12-21T02:17:02Z
2020-12-21T00:19:05Z,42.805,6.029,13.2983,4.60002,2470.24,2020-12-21T02:20:05Z
2020-12-21T00:22:09Z,42.805,6.029,13.2982,4.59994,2470.203,2020-12-21T02:23:08Z
2020-12-21T00:25:12Z,42.805,6.029,13.2984,4.60011,2470.227,2020-12-21T02:26:11Z
2020-12-21T00:28:15Z,42.805,6.029,13.2979,4.59991,2470.217,2020-12-21T02:29:14Z
2020-12-21T00:31:18Z,42.805,6.029,13.3005,4.60003,2470.217,2020-12-21T02:32:17Z
2020-12-21T00:34:21Z,42.805,6.029,13.2988,4.60017,2470.24,2020-12-21T02:35:20Z
2020-12-21T00:37:24Z,42.805,6.029,13.2979,4.59999,2470.227,2020-12-21T02:38:23Z
2020-12-21T00:40:27Z,42.805,6.029,13.2981,4.59999,2470.217,2020-12-21T02:41:27Z
2020-12-21T00:43:30Z,42.805,6.029,13.2993,4.60021,2470.227,2020-12-21T02:44:30Z
2020-12-21T00:46:33Z,42.805,6.029,13.2982,4.59996,2470.203,2020-12-21T02:47:33Z
2020-12-21T00:49:37Z,42.805,6.029,13.2982,4.60005,2470.227,2020-12-21T02:50:36Z
2020-12-21T00:52:40Z,42.805,6.029,13.2983,4.59996,2470.24,2020-12-21T02:53:39Z
2020-12-21T00:55:43Z,42.805,6.029,13.2983,4.59999,2470.24,2020-12-21T02:56:42Z
2020-12-21T00:58:46Z,42.805,6.029,13.2981,4.59993,2470.203,2020-12-21T02:59:45Z
2020-12-21T01:01:49Z,42.805,6.029,13.2983,4.60007,2470.24,2020-12-21T03:02:48Z
2020-12-21T01:04:52Z,42.805,6.029,13.2986,4.60006,2470.24,2020-12-21T03:05:52Z
2020-12-21T01:07:55Z,42.805,6.029,13.2980,4.59994,2470.227,2020-12-21T03:08:55Z
2020-12-21T01:10:58Z,42.805,6.029,13.2982,4.59987,2470.203,2020-12-21T03:11:58Z
2020-12-21T01:14:02Z,42.805,6.029,13.2982,4.59991,2470.227,2020-12-21T03:15:01Z
2020-12-21T01:17:05Z,42.805,6.029,13.2986,4.59988,2470.217,2020-12-21T03:18:04Z
2020-12-21T01:20:08Z,42.805,6.029,13.2982,4.59992,2470.194,2020-12-21T03:21:07Z
2020-12-21T01:23:11Z,42.805,6.029,13.2979,4.59989,2470.203,2020-12-21T03:24:10Z
2020-12-21T01:26:14Z,42.805,6.029,13.2979,4.59990,2470.227,2020-12-21T03:27:13Z
2020-12-21T01:29:17Z,42.805,6.029,13.2981,4.59992,2470.227,2020-12-21T03:30:17Z
2020-12-21T01:32:20Z,42.805,6.029,13.2980,4.59987,2470.203,2020-12-21T03:33:20Z
2020-12-21T01:35:23Z,42.805,6.029,13.2979,4.59987,2470.203,2020-12-21T03:36:23Z
2020-12-21T01:38:27Z,42.805,6.029,13.2980,4.59987,2470.217,2020-12-21T03:39:26Z
2020-12-21T01:41:30Z,42.805,6.029,13.2980,4.59988,2470.227,2020-12-21T03:42:29Z
2020-12-21T01:44:33Z,42.805,6.029,13.2979,4.59988,2470.203,2020-12-21T03:45:32Z
2020-12-21T01:47:36Z,42.805,6.029,13.2979,4.59987,2470.217,2020-12-21T03:48:35Z
2020-12-21T01:50:39Z,42.805,6.029,13.2982,4.59988,2470.203,2020-12-21T03:51:38Z
2020-12-21T01:53:42Z,42.805,6.029,13.2981,4.59988,2470.194,2020-12-21T03:54:42Z
2020-12-21T01:56:45Z,42.805,6.029,13.2981,4.59986,2470.264,2020-12-21T03:57:45Z
2020-12-21T01:59:48Z,42.805,6.029,13.2980,4.59988,2470.203,2020-12-21T04:00:48Z
2020-12-21T02:02:52Z,42.805,6.029,13.2980,4.59986,2470.203,2020-12-21T04:03:51Z
2020-12-21T02:05:55Z,42.805,6.029,13.2979,4.59986,2470.18,2020-12-21T04:06:54Z
2020-12-21T02:08:58Z,42.805,6.029,13.2983,4.59986,2470.194,2020-12-21T04:09:57Z
2020-12-21T02:12:01Z,42.805,6.029,13.2981,4.59986,2470.203,2020-12-21T04:13:00Z
2020-12-21T02:15:04Z,42.805,6.029,13.2983,4.59986,2470.203,2020-12-21T04:16:03Z
2020-12-21T02:18:07Z,42.805,6.029,13.2982,4.59986,2470.203,2020-12-21T04:19:07Z
2020-12-21T02:21:10Z,42.805,6.029,13.2979,4.59988,2470.203,2020-12-21T04:22:10Z
2020-12-21T02:24:13Z,42.805,6.029,13.2982,4.59989,2470.217,2020-12-21T04:25:13Z
2020-12-21T02:27:17Z,42.805,6.029,13.2980,4.59989,2470.203,2020-12-21T04:28:16Z
2020-12-21T02:30:20Z,42.805,6.029,13.2980,4.59988,2470.203,2020-12-21T04:31:19Z
2020-12-21T02:33:23Z,42.805,6.029,13.2982,4.59986,2470.18,2020-12-21T04:34:22Z
2020-12-21T02:36:26Z,42.805,6.029,13.2980,4.59987,2470.18,2020-12-21T04:37:25Z
2020-12-21T02:39:29Z,42.805,6.029,13.2979,4.59990,2470.18,2020-12-21T04:40:28Z
2020-12-21T02:42:32Z,42.805,6.029,13.2976,4.59986,2470.18,2020-12-21T04:43:32Z
2020-12-21T02:45:35Z,42.805,6.029,13.2982,4.59987,2470.194,2020-12-21T04:46:35Z
2020-12-21T02:48:38Z,42.805,6.029,13.2980,4.59986,2470.18,2020-12-21T04:49:38Z
2020-12-21T02:51:42Z,42.805,6.029,13.2981,4.59988,2470.194,2020-12-21T04:52:41Z
2020-12-21T02:54:45Z,42.805,6.029,13.2981,4.59988,2470.203,2020-12-21T04:55:44Z
2020-12-21T02:57:48Z,42.805,6.029,13.2979,4.59990,2470.203,2020-12-21T04:58:47Z
2020-12-21T03:00:51Z,42.805,6.029,13.2982,4.59986,2470.194,2020-12-21T05:01:50Z
2020-12-21T03:03:54Z,42.805,6.029,13.2985,4.59987,2470.18,2020-12-21T05:04:53Z
2020-12-21T03:06:57Z,42.805,6.029,13.2979,4.59988,2470.18,2020-12-21T05:07:56Z
2020-12-21T03:10:00Z,42.805,6.029,13.2981,4.59988,2470.133,2020-12-21T05:11:00Z
2020-12-21T03:13:03Z,42.805,6.029,13.2982,4.59988,2470.18,2020-12-21T05:14:03Z
2020-12-21T03:16:06Z,42.805,6.029,13.2984,4.59989,2470.194,2020-12-21T05:17:06Z
2020-12-21T03:19:10Z,42.805,6.029,13.2979,4.59988,2470.18,2020-12-21T05:20:09Z
2020-12-21T03:22:13Z,42.805,6.029,13.2983,4.59986,2470.156,2020-12-21T05:23:12Z
2020-12-21T03:25:16Z,42.805,6.029,13.2979,4.59988,2470.156,2020-12-21T05:26:15Z
2020-12-21T03:28:19Z,42.805,6.029,13.2983,4.59990,2470.171,2020-12-21T05:29:18Z
2020-12-21T03:31:22Z,42.805,6.029,13.2981,4.59989,2470.194,2020-12-21T05:32:21Z
2020-12-21T03:34:25Z,42.805,6.029,13.2979,4.59986,2470.18,2020-12-21T05:35:25Z
2020-12-21T03:37:28Z,42.805,6.029,13.2981,4.59987,2470.166,2020-12-21T05:38:28Z
2020-12-21T03:40:31Z,42.805,6.029,13.2983,4.59986,2470.18,2020-12-21T05:41:31Z
2020-12-21T03:43:35Z,42.805,6.029,13.2983,4.59987,2470.156,2020-12-21T05:44:34Z
2020-12-21T03:46:38Z,42.805,6.029,13.2982,4.59986,2470.18,2020-12-21T05:47:37Z
2020-12-21T03:49:41Z,42.805,6.029,13.2980,4.59987,2470.203,2020-12-21T05:50:40Z
2020-12-21T03:52:44Z,42.805,6.029,13.2982,4.59987,2470.194,2020-12-21T05:53:43Z
2020-12-21T03:55:47Z,42.805,6.029,13.2979,4.59988,2470.171,2020-12-21T05:56:46Z
2020-12-21T03:58:50Z,42.805,6.029,13.2981,4.59986,2470.156,2020-12-21T05:59:50Z
2020-12-21T04:01:53Z,42.805,6.029,13.2978,4.59986,2470.156,2020-12-21T06:02:53Z
2020-12-21T04:04:56Z,42.805,6.029,13.2981,4.59987,2470.194,2020-12-21T06:05:56Z
2020-12-21T04:08:00Z,42.805,6.029,13.2982,4.59986,2470.194,2020-12-21T06:08:59Z
2020-12-21T04:11:03Z,42.805,6.029,13.2985,4.59986,2470.194,2020-12-21T06:12:02Z
2020-12-21T04:14:06Z,42.805,6.029,13.2982,4.59987,2470.171,2020-12-21T06:15:05Z
2020-12-21T04:17:09Z,42.805,6.029,13.2981,4.59996,2470.156,2020-12-21T06:18:08Z
2020-12-21T04:20:12Z,42.805,6.029,13.2977,4.59989,2470.156,2020-12-21T06:21:11Z
2020-12-21T04:23:15Z,42.805,6.029,13.2976,4.59989,2470.119,2020-12-21T06:24:15Z
2020-12-21T04:26:18Z,42.805,6.029,13.2982,4.59991,2470.18,2020-12-21T06:27:18Z
2020-12-21T04:29:21Z,42.805,6.029,13.2980,4.59988,2470.147,2020-12-21T06:30:21Z
2020-12-21T04:32:25Z,42.805,6.029,13.2980,4.59997,2470.133,2020-12-21T06:33:24Z
2020-12-21T04:35:28Z,42.805,6.029,13.2981,4.59988,2470.133,2020-12-21T06:36:27Z
2020-12-21T04:38:31Z,42.805,6.029,13.2980,4.59990,2470.171,2020-12-21T06:39:30Z
2020-12-21T04:41:34Z,42.805,6.029,13.2978,4.59988,2470.18,2020-12-21T06:42:33Z
2020-12-21T04:44:37Z,42.805,6.029,13.2983,4.59988,2470.147,2020-12-21T06:45:36Z
2020-12-21T04:47:40Z,42.805,6.029,13.2986,4.59994,2470.147,2020-12-21T06:48:40Z
2020-12-21T04:50:43Z,42.805,6.029,13.2976,4.59992,2470.171,2020-12-21T06:51:43Z
2020-12-21T04:53:46Z,42.805,6.029,13.2977,4.59990,2470.194,2020-12-21T06:54:46Z
2020-12-21T04:56:50Z,42.805,6.029,13.2981,4.59987,2470.166,2020-12-21T06:57:49Z
2020-12-21T04:59:53Z,42.805,6.029,13.2983,4.59991,2470.133,2020-12-21T07:00:52Z
2020-12-21T05:02:56Z,42.805,6.029,13.2982,4.59991,2470.156,2020-12-21T07:03:55Z
2020-12-21T05:05:59Z,42.805,6.029,13.2980,4.59991,2470.133,2020-12-21T07:06:58Z
2020-12-21T05:09:02Z,42.805,6.029,13.2978,4.59988,2470.156,2020-12-21T07:10:01Z
2020-12-21T05:12:05Z,42.805,6.029,13.2979,4.59993,2470.156,2020-12-21T07:13:04Z
2020-12-21T05:15:08Z,42.805,6.029,13.2981,4.59990,2470.133,2020-12-21T07:16:08Z
2020-12-21T05:18:11Z,42.805,6.029,13.2982,4.59991,2470.133,2020-12-21T07:19:11Z
2020-12-21T05:21:14Z,42.805,6.029,13.2981,4.59991,2470.18,2020-12-21T07:22:14Z
2020-12-21T05:24:18Z,42.805,6.029,13.2977,4.59994,2470.171,2020-12-21T07:25:17Z
2020-12-21T05:27:21Z,42.805,6.029,13.2980,4.59991,2470.171,2020-12-21T07:28:20Z
2020-12-21T05:30:24Z,42.805,6.029,13.2981,4.59990,2470.156,2020-12-21T07:31:23Z
2020-12-21T05:33:27Z,42.805,6.029,13.2982,4.59993,2470.156,2020-12-21T07:34:26Z
2020-12-21T05:36:30Z,42.805,6.029,13.2979,4.59988,2470.156,2020-12-21T07:37:29Z
2020-12-21T05:39:33Z,42.805,6.029,13.2979,4.59988,2470.133,2020-12-21T07:40:33Z
2020-12-21T05:42:36Z,42.805,6.029,13.2985,4.59990,2470.133,2020-12-21T07:43:36Z
2020-12-21T05:45:39Z,42.805,6.029,13.2982,4.59989,2470.18,2020-12-21T07:46:39Z
2020-12-21T05:48:43Z,42.805,6.029,13.2979,4.59993,2470.156,2020-12-21T07:49:42Z
2020-12-21T05:51:46Z,42.805,6.029,13.2979,4.59991,2470.133,2020-12-21T07:52:45Z
2020-12-21T05:54:49Z,42.805,6.029,13.2980,4.59993,2470.156,2020-12-21T07:55:48Z
2020-12-21T05:57:52Z,42.805,6.029,13.2982,4.59988,2470.133,2020-12-21T07:58:51Z
2020-12-21T06:00:55Z,42.805,6.029,13.2978,4.59989,2470.156,2020-12-21T08:01:54Z
2020-12-21T06:03:58Z,42.805,6.029,13.2983,4.59993,2470.133,2020-12-21T08:04:58Z
2020-12-21T06:07:01Z,42.805,6.029,13.2981,4.59996,2470.133,2020-12-21T08:08:01Z
2020-12-21T06:10:04Z,42.805,6.029,13.2980,4.59996,2470.166,2020-12-21T08:11:04Z
2020-12-21T06:13:08Z,42.805,6.029,13.2980,4.59994,2470.217,2020-12-21T08:14:07Z
2020-12-21T06:16:11Z,42.805,6.029,13.2979,4.59991,2470.156,2020-12-21T08:17:10Z
2020-12-21T06:19:14Z,42.805,6.029,13.2980,4.59995,2470.194,2020-12-21T08:20:13Z
2020-12-21T06:22:17Z,42.805,6.029,13.2982,4.59996,2470.147,2020-12-21T08:23:16Z
2020-12-21T06:25:20Z,42.805,6.029,13.2982,4.60000,2470.171,2020-12-21T08:26:19Z
2020-12-21T06:28:23Z,42.805,6.029,13.2981,4.59996,2470.147,2020-12-21T08:29:23Z
2020-12-21T06:31:26Z,42.805,6.029,13.2979,4.59996,2470.18,2020-12-21T08:32:26Z
2020-12-21T06:34:29Z,42.805,6.029,13.2977,4.59994,2470.18,2020-12-21T08:35:29Z
2020-12-21T06:37:33Z,42.805,6.029,13.2980,4.59996,2470.18,2020-12-21T08:38:32Z
2020-12-21T06:40:36Z,42.805,6.029,13.2981,4.59999,2470.18,2020-12-21T08:41:35Z
2020-12-21T06:43:39Z,42.805,6.029,13.2983,4.59996,2470.18,2020-12-21T08:44:38Z
2020-12-21T06:46:42Z,42.805,6.029,13.2980,4.59995,2470.171,2020-12-21T08:47:41Z
2020-12-21T06:49:45Z,42.805,6.029,13.2981,4.59999,2470.217,2020-12-21T08:50:44Z
2020-12-21T06:52:48Z,42.805,6.029,13.2979,4.59994,2470.217,2020-12-21T08:53:47Z
2020-12-21T06:55:51Z,42.805,6.029,13.2982,4.59995,2470.203,2020-12-21T08:56:51Z
2020-12-21T06:58:54Z,42.805,6.029,13.2979,4.60003,2470.156,2020-12-21T08:59:54Z
2020-12-21T07:01:57Z,42.805,6.029,13.2982,4.59998,2470.194,2020-12-21T09:02:57Z
2020-12-21T07:05:01Z,42.805,6.029,13.2982,4.60007,2470.171,2020-12-21T09:06:00Z
2020-12-21T07:08:04Z,42.805,6.029,13.2980,4.59999,2470.18,2020-12-21T09:09:03Z
2020-12-21T07:11:07Z,42.805,6.029,13.2980,4.60000,2470.156,2020-12-21T09:12:06Z
2020-12-21T07:14:10Z,42.805,6.029,13.2982,4.59999,2470.18,2020-12-21T09:15:09Z
2020-12-21T07:17:13Z,42.805,6.029,13.2980,4.60006,2470.18,2020-12-21T09:18:12Z
2020-12-21T07:20:16Z,42.805,6.029,13.2980,4.60011,2470.194,2020-12-21T09:21:16Z
2020-12-21T07:23:19Z,42.805,6.029,13.2979,4.60003,2470.18,2020-12-21T09:24:19Z
2020-12-21T07:26:22Z,42.805,6.029,13.2983,4.60014,2470.18,2020-12-21T09:27:22Z
2020-12-21T07:29:26Z,42.805,6.029,13.2982,4.60004,2470.189,2020-12-21T09:30:25Z
2020-12-21T07:32:29Z,42.805,6.029,13.2989,4.60006,2470.18,2020-12-21T09:33:28Z
2020-12-21T07:35:32Z,42.805,6.029,13.3000,4.60033,2470.194,2020-12-21T09:36:31Z
2020-12-21T07:38:35Z,42.805,6.029,13.3014,4.60059,2470.194,2020-12-21T09:39:34Z
2020-12-21T07:41:38Z,42.805,6.029,13.3038,4.60029,2470.217,2020-12-21T09:42:37Z
2020-12-21T07:44:41Z,42.805,6.029,13.3006,4.60018,2470.203,2020-12-21T09:45:41Z
2020-12-21T07:47:44Z,42.805,6.029,13.3037,4.60031,2470.194,2020-12-21T09:48:44Z
2020-12-21T07:50:47Z,42.805,6.029,13.3039,4.60028,2470.171,2020-12-21T09:51:47Z
2020-12-21T07:53:51Z,42.805,6.029,13.3045,4.60032,2470.203,2020-12-21T09:54:50Z
2020-12-21T07:56:54Z,42.805,6.029,13.3036,4.60035,2470.227,2020-12-21T09:57:53Z
2020-12-21T07:59:57Z,42.805,6.029,13.3057,4.60034,2470.203,2020-12-21T10:00:56Z
2020-12-21T08:03:00Z,42.805,6.029,13.3041,4.60024,2470.227,2020-12-21T10:03:59Z
2020-12-21T08:06:03Z,42.805,6.029,13.3031,4.60027,2470.194,2020-12-21T10:07:02Z
2020-12-21T08:09:06Z,42.805,6.029,13.3070,4.60024,2470.217,2020-12-21T10:10:06Z
2020-12-21T08:12:09Z,42.805,6.029,13.3058,4.60022,2470.227,2020-12-21T10:13:09Z
2020-12-21T08:15:12Z,42.805,6.029,13.3054,4.60033,2470.203,2020-12-21T10:16:12Z
2020-12-21T08:18:16Z,42.805,6.029,13.3045,4.60032,2470.203,2020-12-21T10:19:15Z
2020-12-21T08:21:19Z,42.805,6.029,13.3045,4.60031,2470.194,2020-12-21T10:22:18Z
2020-12-21T08:24:22Z,42.805,6.029,13.3051,4.60017,2470.24,2020-12-21T10:25:21Z
2020-12-21T08:27:25Z,42.805,6.029,13.3070,4.60026,2470.217,2020-12-21T10:28:24Z
2020-12-21T08:30:28Z,42.805,6.029,13.3065,4.60020,2470.227,2020-12-21T10:31:27Z
2020-12-21T08:33:31Z,42.805,6.029,13.3055,4.60026,2470.24,2020-12-21T10:34:31Z
2020-12-21T08:36:34Z,42.805,6.029,13.3056,4.60023,2470.24,2020-12-21T10:37:34Z
2020-12-21T08:39:37Z,42.805,6.029,13.3046,4.60016,2470.24,2020-12-21T10:40:37Z
2020-12-21T08:42:41Z,42.805,6.029,13.3039,4.60021,2470.25,2020-12-21T10:43:40Z
2020-12-21T08:45:44Z,42.805,6.029,13.3028,4.60007,2470.24,2020-12-21T10:46:43Z
2020-12-21T08:48:47Z,42.805,6.029,13.3037,4.60021,2470.24,2020-12-21T10:49:46Z
2020-12-21T08:51:50Z,42.805,6.029,13.3039,4.60022,2470.217,2020-12-21T10:52:49Z
2020-12-21T08:54:53Z,42.805,6.029,13.3001,4.60046,2470.217,2020-12-21T10:55:52Z
2020-12-21T08:57:56Z,42.805,6.029,13.3019,4.60024,2470.227,2020-12-21T10:58:56Z
2020-12-21T09:00:59Z,42.805,6.029,13.3034,4.60021,2470.227,2020-12-21T11:01:59Z
2020-12-21T09:04:02Z,42.805,6.029,13.3021,4.60023,2470.25,2020-12-21T11:05:02Z
2020-12-21T09:07:06Z,42.805,6.029,13.3021,4.60011,2470.264,2020-12-21T11:08:05Z
2020-12-21T09:10:09Z,42.805,6.029,13.3024,4.60024,2470.264,2020-12-21T11:11:08Z
2020-12-21T09:13:12Z,42.805,6.029,13.3013,4.60034,2470.227,2020-12-21T11:14:11Z
2020-12-21T09:16:15Z,42.805,6.029,13.3029,4.60040,2470.25,2020-12-21T11:17:14Z
2020-12-21T09:19:18Z,42.805,6.029,13.3034,4.60009,2470.25,2020-12-21T11:20:17Z
2020-12-21T09:22:21Z,42.805,6.029,13.3032,4.60024,2470.287,2020-12-21T11:23:21Z
2020-12-21T09:25:24Z,42.805,6.029,13.3034,4.60039,2470.25,2020-12-21T11:26:24Z
2020-12-21T09:28:27Z,42.805,6.029,13.3063,4.60050,2470.25,2020-12-21T11:29:27Z
2020-12-21T09:31:31Z,42.805,6.029,13.3033,4.60016,2470.273,2020-12-21T11:32:30Z
2020-12-21T09:34:34Z,42.805,6.029,13.3046,4.60020,2470.273,2020-12-21T11:35:33Z
2020-12-21T09:37:37Z,42.805,6.029,13.3028,4.60032,2470.287,2020-12-21T11:38:36Z
2020-12-21T09:40:40Z,42.805,6.029,13.3046,4.60027,2470.273,2020-12-21T11:41:39Z
2020-12-21T09:43:43Z,42.805,6.029,13.3024,4.60023,2470.287,2020-12-21T11:44:43Z
2020-12-21T09:46:46Z,42.805,6.029,13.3021,4.60028,2470.273,2020-12-21T11:47:46Z
2020-12-21T09:49:49Z,42.805,6.029,13.3015,4.60039,2470.287,2020-12-21T11:50:49Z
2020-12-21T09:52:53Z,42.805,6.029,13.3051,4.60021,2470.297,2020-12-21T11:53:52Z
2020-12-21T09:55:56Z,42.805,6.029,13.3040,4.60026,2470.25,2020-12-21T11:56:55Z
2020-12-21T09:58:59Z,42.805,6.029,13.3046,4.60034,2470.273,2020-12-21T11:59:58Z
2020-12-21T10:02:02Z,42.805,6.029,13.3036,4.60029,2470.273,2020-12-21T12:03:01Z
2020-12-21T10:05:05Z,42.805,6.029,13.3045,4.60021,2470.273,2020-12-21T12:06:04Z
2020-12-21T10:08:08Z,42.805,6.029,13.3026,4.60032,2470.297,2020-12-21T12:09:08Z
2020-12-21T10:11:11Z,42.805,6.029,13.3028,4.60021,2470.297,2020-12-21T12:12:11Z
2020-12-21T10:14:14Z,42.805,6.029,13.3015,4.60029,2470.297,2020-12-21T12:15:14Z
2020-12-21T10:17:18Z,42.805,6.029,13.3026,4.60011,2470.287,2020-12-21T12:18:17Z
2020-12-21T10:20:21Z,42.805,6.029,13.3024,4.60026,2470.273,2020-12-21T12:21:20Z
2020-12-21T10:23:24Z,42.805,6.029,13.3025,4.60029,2470.31,2020-12-21T12:24:23Z
2020-12-21T10:26:27Z,42.805,6.029,13.3029,4.60023,2470.297,2020-12-21T12:27:26Z
2020-12-21T10:29:30Z,42.805,6.029,13.3013,4.60031,2470.334,2020-12-21T12:30:29Z
2020-12-21T10:32:33Z,42.805,6.029,13.3034,4.60024,2470.31,2020-12-21T12:33:33Z
2020-12-21T10:35:36Z,42.805,6.029,13.3029,4.60021,2470.334,2020-12-21T12:36:36Z
2020-12-21T10:38:39Z,42.805,6.029,13.3064,4.60016,2470.297,2020-12-21T12:39:39Z
2020-12-21T10:41:43Z,42.805,6.029,13.3029,4.60017,2470.31,2020-12-21T12:42:42Z
2020-12-21T10:44:46Z,42.805,6.029,13.3029,4.60015,2470.334,2020-12-21T12:45:45Z
2020-12-21T10:47:49Z,42.805,6.029,13.3027,4.60014,2470.334,2020-12-21T12:48:48Z
2020-12-21T10:50:52Z,42.805,6.029,13.3020,4.60021,2470.32,2020-12-21T12:51:51Z
2020-12-21T10:53:55Z,42.805,6.029,13.3018,4.60009,2470.297,2020-12-21T12:54:54Z
2020-12-21T10:56:58Z,42.805,6.029,13.3021,4.60019,2470.334,2020-12-21T12:57:58Z
2020-12-21T11:00:01Z,42.805,6.029,13.3014,4.60008,2470.32,2020-12-21T13:01:01Z
2020-12-21T11:03:04Z,42.805,6.029,13.3012,4.60014,2470.297,2020-12-21T13:04:04Z
2020-12-21T11:06:08Z,42.805,6.029,13.3024,4.60014,2470.366,2020-12-21T13:07:07Z
2020-12-21T11:09:11Z,42.805,6.029,13.3038,4.60008,2470.297,2020-12-21T13:10:10Z
2020-12-21T11:12:14Z,42.805,6.029,13.3026,4.60012,2470.31,2020-12-21T13:13:13Z
2020-12-21T11:15:17Z,42.805,6.029,13.3024,4.60005,2470.32,2020-12-21T13:16:16Z
2020-12-21T11:18:20Z,42.805,6.029,13.3027,4.60011,2470.32,2020-12-21T13:19:19Z
2020-12-21T11:21:23Z,42.805,6.029,13.3010,4.60014,2470.343,2020-12-21T13:22:23Z
2020-12-21T11:24:26Z,42.805,6.029,13.3021,4.60011,2470.334,2020-12-21T13:25:26Z
2020-12-21T11:27:29Z,42.805,6.029,13.3024,4.60015,2470.334,2020-12-21T13:28:29Z
2020-12-21T11:30:33Z,42.805,6.029,13.3008,4.60016,2470.334,2020-12-21T13:31:32Z
2020-12-21T11:33:36Z,42.805,6.029,13.3023,4.60011,2470.32,2020-12-21T13:34:35Z
2020-12-21T11:36:39Z,42.805,6.029,13.3016,4.60016,2470.283,2020-12-21T13:37:38Z
2020-12-21T11:39:42Z,42.805,6.029,13.3016,4.60011,2470.334,2020-12-21T13:40:41Z
2020-12-21T11:42:45Z,42.805,6.029,13.3009,4.60001,2470.334,2020-12-21T13:43:44Z
2020-12-21T11:45:48Z,42.805,6.029,13.3015,4.60008,2470.343,2020-12-21T13:46:48Z
2020-12-21T11:48:51Z,42.805,6.029,13.3020,4.60007,2470.32,2020-12-21T13:49:51Z
2020-12-21T11:51:54Z,42.805,6.029,13.3012,4.60001,2470.343,2020-12-21T13:52:54Z
2020-12-21T11:54:58Z,42.805,6.029,13.3008,4.60003,2470.343,2020-12-21T13:55:57Z
2020-12-21T11:58:01Z,42.805,6.029,13.3019,4.60011,2470.32,2020-12-21T13:59:00Z
2020-12-21T12:01:04Z,42.805,6.029,13.3020,4.60019,2470.32,2020-12-21T14:02:03Z
2020-12-21T12:04:07Z,42.805,6.029,13.3012,4.60011,2470.357,2020-12-21T14:05:06Z
2020-12-21T12:07:10Z,42.805,6.029,13.3001,4.60009,2470.32,2020-12-21T14:08:09Z
2020-12-21T12:10:13Z,42.805,6.029,13.3007,4.60006,2470.32,2020-12-21T14:11:13Z
2020-12-21T12:13:16Z,42.805,6.029,13.3005,4.60008,2470.343,2020-12-21T14:14:16Z
2020-12-21T12:16:19Z,42.805,6.029,13.3006,4.60002,2470.32,2020-12-21T14:17:19Z
2020-12-21T12:19:23Z,42.805,6.029,13.3015,4.60000,2470.334,2020-12-21T14:20:22Z
2020-12-21T12:22:26Z,42.805,6.029,13.3000,4.60006,2470.357,2020-12-21T14:23:25Z
2020-12-21T12:25:29Z,42.805,6.029,13.3000,4.59999,2470.334,2020-12-21T14:26:28Z
2020-12-21T12:28:32Z,42.805,6.029,13.3004,4.60001,2470.32,2020-12-21T14:29:31Z
2020-12-21T12:31:35Z,42.805,6.029,13.3001,4.59998,2470.343,2020-12-21T14:32:34Z
2020-12-21T12:34:38Z,42.805,6.029,13.3004,4.60001,2470.32,2020-12-21T14:35:38Z
2020-12-21T12:37:41Z,42.805,6.029,13.3002,4.60000,2470.32,2020-12-21T14:38:41Z
2020-12-21T12:40:44Z,42.805,6.029,13.3002,4.60004,2470.334,2020-12-21T14:41:44Z
2020-12-21T12:43:48Z,42.805,6.029,13.2999,4.60019,2470.38,2020-12-21T14:44:47Z
2020-12-21T12:46:51Z,42.805,6.029,13.3003,4.60000,2470.32,2020-12-21T14:47:50Z
2020-12-21T12:49:54Z,42.805,6.029,13.3000,4.60003,2470.31,2020-12-21T14:50:53Z
2020-12-21T12:52:57Z,42.805,6.029,13.3009,4.60003,2470.343,2020-12-21T14:53:56Z
2020-12-21T12:56:00Z,42.805,6.029,13.2998,4.60004,2470.334,2020-12-21T14:57:00Z
2020-12-21T12:59:03Z,42.805,6.029,13.2997,4.60001,2470.334,2020-12-21T15:00:03Z
2020-12-21T13:02:06Z,42.805,6.029,13.3007,4.60008,2470.343,2020-12-21T15:03:06Z
2020-12-21T13:05:09Z,42.805,6.029,13.3017,4.59994,2470.32,2020-12-21T15:06:09Z
2020-12-21T13:08:13Z,42.805,6.029,13.3001,4.59999,2470.343,2020-12-21T15:09:12Z
2020-12-21T13:11:16Z,42.805,6.029,13.3001,4.59999,2470.32,2020-12-21T15:12:15Z
2020-12-21T13:14:19Z,42.805,6.029,13.2997,4.60004,2470.334,2020-12-21T15:15:18Z
2020-12-21T13:17:22Z,42.805,6.029,13.3003,4.59999,2470.334,2020-12-21T15:18:21Z
2020-12-21T13:20:25Z,42.805,6.029,13.3004,4.60000,2470.32,2020-12-21T15:21:25Z
2020-12-21T13:23:28Z,42.805,6.029,13.2999,4.59999,2470.31,2020-12-21T15:24:28Z
2020-12-21T13:26:31Z,42.805,6.029,13.3000,4.60001,2470.32,2020-12-21T15:27:31Z
2020-12-21T13:29:35Z,42.805,6.029,13.2998,4.60004,2470.297,2020-12-21T15:30:34Z
2020-12-21T13:32:38Z,42.805,6.029,13.3004,4.60008,2470.343,2020-12-21T15:33:37Z
2020-12-21T13:35:41Z,42.805,6.029,13.3008,4.59999,2470.357,2020-12-21T15:36:40Z
2020-12-21T13:38:44Z,42.805,6.029,13.2998,4.60009,2470.297,2020-12-21T15:39:43Z
2020-12-21T13:41:47Z,42.805,6.029,13.3000,4.60001,2470.297,2020-12-21T15:42:46Z
2020-12-21T13:44:50Z,42.805,6.029,13.3013,4.60002,2470.357,2020-12-21T15:45:50Z
2020-12-21T13:47:53Z,42.805,6.029,13.2998,4.60000,2470.357,2020-12-21T15:48:53Z
2020-12-21T13:50:56Z,42.805,6.029,13.2998,4.60000,2470.32,2020-12-21T15:51:56Z
2020-12-21T13:54:00Z,42.805,6.029,13.3009,4.60003,2470.334,2020-12-21T15:54:59Z
2020-12-21T13:57:03Z,42.805,6.029,13.2999,4.60002,2470.334,2020-12-21T15:58:02Z
2020-12-21T14:00:06Z,42.805,6.029,13.3000,4.60002,2470.31,2020-12-21T16:01:05Z
2020-12-21T14:03:09Z,42.805,6.029,13.3008,4.60016,2470.32,2020-12-21T16:04:08Z
2020-12-21T14:06:12Z,42.805,6.029,13.2998,4.60004,2470.32,2020-12-21T16:07:11Z
2020-12-21T14:09:15Z,42.805,6.029,13.3006,4.60000,2470.334,2020-12-21T16:10:15Z
2020-12-21T14:12:18Z,42.805,6.029,13.3003,4.60003,2470.334,2020-12-21T16:13:18Z
2020-12-21T14:15:21Z,42.805,6.029,13.2998,4.60003,2470.357,2020-12-21T16:16:21Z
2020-12-21T14:18:25Z,42.805,6.029,13.2999,4.60005,2470.297,2020-12-21T16:19:24Z
2020-12-21T14:21:28Z,42.805,6.029,13.3004,4.60008,2470.343,2020-12-21T16:22:27Z
2020-12-21T14:24:31Z,42.805,6.029,13.3004,4.60009,2470.32,2020-12-21T16:25:30Z
2020-12-21T14:27:34Z,42.805,6.029,13.3006,4.60016,2470.297,2020-12-21T16:28:33Z
2020-12-21T14:30:37Z,42.805,6.029,13.3012,4.60007,2470.297,2020-12-21T16:31:36Z
2020-12-21T14:33:40Z,42.805,6.029,13.2998,4.59998,2470.31,2020-12-21T16:34:40Z
2020-12-21T14:36:43Z,42.805,6.029,13.2999,4.60002,2470.357,2020-12-21T16:37:43Z
2020-12-21T14:39:46Z,42.805,6.029,13.2999,4.60014,2470.334,2020-12-21T16:40:46Z
2020-12-21T14:42:50Z,42.805,6.029,13.3004,4.59999,2470.32,2020-12-21T16:43:49Z
2020-12-21T14:45:53Z,42.805,6.029,13.2998,4.59998,2470.31,2020-12-21T16:46:52Z
2020-12-21T14:48:56Z,42.805,6.029,13.2998,4.60000,2470.31,2020-12-21T16:49:55Z
2020-12-21T14:51:59Z,42.805,6.029,13.2999,4.60054,2470.297,2020-12-21T16:52:58Z
2020-12-21T14:55:02Z,42.805,6.029,13.3000,4.60015,2470.297,2020-12-21T16:56:02Z
2020-12-21T14:58:05Z,42.805,6.029,13.3002,4.60005,2470.273,2020-12-21T16:59:05Z
2020-12-21T15:01:08Z,42.805,6.029,13.2998,4.60001,2470.297,2020-12-21T17:02:08Z